Location: Newark
(54.2500°N, 9.1833°E)
Time: 01:54:59
(UTC+00:00)

Transit 4A - Pass Details

Date: 19 December 2019
Orbit: 871 x 973 km, 66.8° (Epoch: 23 January)

Event Time Altitude Azimuth Distance (km) Brightness Sun altitude
Rises 16:16:53 0° 245° (WSW) 3,575 13.3 -10.1°
Reaches altitude 10° 16:19:33 10° 252° (WSW) 2,619 11.8 -10.5°
Maximum altitude 16:25:22 46° 325° (NW) 1,198 8.6 -11.3°
Enters shadow 16:30:46 12° 37° (NE) 2,451 9.6 -12.0°
